Content
SEND FEEDBACK

Daily
Averages
Monthly
Summary
United States of America

UKIAH, CALIFORNIA


Home > North America > United States > California
Elevation: 615 feet     Latitude: 39 08N     Longitude: 123 12W

WEATHER
 
SELECT A DAY
Number of Records: 219,721;   Date Range: 1/1/95 - 10/22/14
 
SHARE

PRINT THIS DATA

[ ← Previous Day ]
WEATHER ALMANAC - MARCH 29, 2014
[ Next Day → ]
[ °C ]   °F
Weather ElementAverageHighLow
Temperature52.9 °F57.9 °F (1:56 pm)46.9 °F (10:56 pm)
Dewpoint48.1 °F53.1 °F (3:44 am)41 °F (5:56 pm)
Humidity84.2 %94 % (4:51 am)62 % (4:56 pm)
Barometer30.02 in30.06 in (11:56 am)29.98 in (3:56 am)
Wind Speed4.4 mph9.2 mph (1:56 am)
Weather ElementAverage
Visibility7.3 mi
Wind DirectionSSE (147.1 °)

Weather ElementTotal
Precipitation2.57 in
Heating Degree Days12.6 (Base 65)
Growing Degree Days2.4 (Base 50)
Averaged from 42 records on March 29, 2014
WEATHER CONDITIONS BREAKOUT
WIND DIRECTION BREAKOUT
WEATHER BY HOUR - MARCH 29, 2014
[ °C ]   °F
Local TimeTemperatureDewpointHumidityBarometerVisibilityWind DirectionWind SpeedGust SpeedPrecipitationEventsConditions
1:32 AM54.0 °F52.0 °F93 %30.04 in2.5 miSSE (160°)5.8 mph0.22 inRainHeavy Rain
1:43 AM54.0 °F52.0 °F93 %30.03 in3.0 miSSE (150°)6.9 mph0.28 inRainHeavy Rain
1:56 AM54.0 °F52.0 °F93 %30.02 in3.0 miSSE (150°)9.2 mph0.35 inRainHeavy Rain
2:56 AM55.0 °F52.0 °F89 %30.00 in4.0 miSSE (150°)8.1 mph0.14 inRainRain
3:05 AM55.0 °F52.0 °F89 %30.01 in4.0 miSE (140°)8.1 mph0.02 inRainRain
3:15 AM55.0 °F52.0 °F89 %30.00 in5.0 miSE (140°)9.2 mph0.04 inRainRain
3:44 AM55.0 °F53.1 °F93 %29.99 in2.5 miSSE (160°)9.2 mph0.11 inRainRain
3:52 AM55.4 °F51.8 °F88 %29.99 in3.0 miSSE (150°)9.2 mph0.14 inRainHeavy Rain
3:56 AM55.0 °F53.1 °F93 %29.98 in3.0 miSSE (150°)8.1 mph0.16 inRainRain
4:27 AM55.0 °F53.1 °F93 %29.98 in2.5 miSSE (150°)6.9 mph0.08 inRainRain
4:34 AM55.0 °F53.1 °F93 %29.99 in3.0 miSouth (190°)4.6 mph0.10 inRainRain
4:40 AM55.0 °F53.1 °F93 %29.99 in1.8 miVariable3.5 mph0.14 inRainHeavy Rain
4:46 AM55.0 °F53.1 °F93 %29.99 in2.0 miCalm0.17 inRainRain
4:51 AM53.6 °F51.8 °F94 %30.00 in3.0 miNNW (340°)5.8 mph0.17 inRainLight Rain
4:56 AM54.0 °F50.0 °F86 %29.99 in4.0 miNNW (340°)6.9 mph0.18 inRainLight Rain
5:56 AM52.0 °F48.0 °F86 %30.01 in10.0 miNorth (10°)5.8 mph0.04 inRainLight Rain
6:56 AM51.1 °F48.0 °F89 %30.01 in8.0 miNNE (20°)3.5 mph0.02 inRainLight Rain
7:28 AM50.0 °F48.0 °F93 %30.03 in6.0 miCalm0.03 inRainLight Rain
7:44 AM50.0 °F48.0 °F93 %30.03 in10.0 miCalm0.03 inOvercast
7:56 AM50.0 °F48.0 °F93 %30.03 in10.0 miCalm0.03 inOvercast
8:03 AM51.1 °F48.0 °F89 %30.03 in10.0 miCalmOvercast
8:49 AM51.1 °F48.0 °F89 %30.04 in10.0 miCalmOvercast
8:56 AM51.1 °F48.0 °F89 %30.04 in10.0 miCalmOvercast
9:56 AM52.0 °F48.0 °F86 %30.04 in10.0 miCalmOvercast
10:05 AM52.0 °F48.0 °F86 %30.05 in10.0 miCalmOvercast
10:56 AM53.1 °F48.9 °F86 %30.05 in10.0 miCalmOvercast
11:56 AM55.0 °F48.9 °F80 %30.06 in10.0 miESE (120°)3.5 mphClear
12:56 PM55.0 °F45.0 °F69 %30.04 in10.0 miCalmMostly Cloudy
1:56 PM57.9 °F46.9 °F67 %30.02 in10.0 miEast (100°)4.6 mphMostly Cloudy
2:06 PM57.0 °F45.0 °F64 %30.03 in10.0 miENE (60°)3.5 mphOvercast
2:56 PM57.0 °F45.0 °F64 %30.01 in10.0 miWNW (300°)9.2 mphMostly Cloudy
3:56 PM55.0 °F45.0 °F69 %30.01 in10.0 miWest (280°)4.6 mph0.01 inMostly Cloudy
4:56 PM55.0 °F42.1 °F62 %30.00 in10.0 miNNW (340°)6.9 mphMostly Cloudy
5:56 PM54.0 °F41.0 °F62 %29.99 in10.0 miNNW (330°)6.9 mphPartly Cloudy
6:56 PM53.1 °F42.1 °F66 %30.00 in10.0 miNorth (360°)4.6 mphScattered Clouds
7:56 PM52.0 °F44.1 °F74 %30.01 in10.0 miWNW (290°)3.5 mphMostly Cloudy
8:56 PM50.0 °F44.1 °F80 %30.02 in8.0 miWest (280°)4.6 mph0.00 inRainLight Rain
9:56 PM48.9 °F44.1 °F83 %30.03 in10.0 miCalm0.00 inScattered Clouds
10:40 PM48.0 °F44.1 °F86 %30.05 in10.0 miNorth (350°)5.8 mph0.03 inOvercast
10:48 PM48.0 °F44.1 °F86 %30.05 in10.0 miNNW (340°)6.9 mph0.03 inRainLight Rain
10:56 PM46.9 °F43.0 °F86 %30.04 in10.0 miNNW (340°)5.8 mph0.03 inRainLight Rain
11:56 PM46.9 °F43.0 °F86 %30.04 in9.0 miWNW (290°)3.5 mph0.02 inRainLight Rain
Hourly data recorded from KUKI, located miles away from Ukiah, California







STORIES FROM OUR PARTNERS